Flag for Grenada Weather past 2 weeks in Saint George's, Grenada

Now
81 °F

Partly cloudy.


Feels Like: 86 °F
Forecast: N/A
Wind: 16 mph from Southeast

Location: Point Salines Airport

Current Time: Jan 26, 2015 at 7:27:59 PM

Latest Report: Jan 26, 2015 at 7:00 PM


Visibility: N/A

Pressure: 29.92 "Hg

Humidity: 84%

Dew point: 75 °F

Location of Saint George'sLocation

Historic Weather in Saint George's — Graph

°F

Saint George's temperature yesterday

Maximum temperature yesterday: 84 °F (at 11:00 AM)
Minimum temperature yesterday: 73 °F (at 5:00 AM)
Average temperature yesterday: 80 °F

Past Weeks' High & Low Weather Summary

 TemperatureHumidityPressure
High86 °F (Jan 18, 1:00 PM)100% (Jan 11, 9:00 PM)30.04 "Hg (Jan 11, 9:00 PM)
Low73 °F (Jan 12, 4:00 AM)66% (Jan 18, 4:00 PM)29.86 "Hg (Jan 14, 3:00 PM)
Average79 °F85%29.94 "Hg
* Reported Jan 11 6:00 PM — Jan 26 6:00 PM, Saint George's, Weather by CustomWeather, © 2014

Note: Actual official high and low records may vary slightly from our data, if they occured in-between our weather recording intervals... More about our weather records

Advertising

Saint George's weather history for previous 24 hours

 ConditionsComfort  
Time TempWeatherWind HumidityBarometerVisibility
6:00 PM
Jan 26
79 °FSprinkles. Broken clouds.17 mph89%29.92 "HgN/A
5:00 PM81 °FScattered showers. Partly sunny.18 mph84%29.89 "Hg4 mi
4:00 PM82 °FPassing clouds.18 mph74%29.89 "HgN/A
3:00 PM84 °FScattered clouds.21 mph74%29.89 "HgN/A
2:00 PM82 °FPassing clouds.23 mph74%29.92 "HgN/A
1:00 PM82 °FScattered clouds.23 mph84%29.92 "HgN/A
12:00 PM81 °FSprinkles. Broken clouds.23 mph89%29.95 "HgN/A
11:00 AM75 °FSprinkles. Broken clouds.15 mph94%29.98 "HgN/A
10:00 AM82 °FPartly sunny.21 mph79%29.98 "HgN/A
9:00 AM81 °FScattered clouds.22 mph84%29.98 "HgN/A
8:00 AM81 °FScattered clouds.21 mph84%29.95 "HgN/A
7:00 AM79 °FBroken clouds.12 mph84%29.92 "HgN/A
6:00 AM77 °FPassing clouds.7 mph89%29.92 "HgN/A
5:00 AM77 °FSprinkles. Passing clouds.15 mph94%29.92 "HgN/A
4:00 AM77 °FPassing clouds.9 mph89%29.89 "HgN/A
2:00 AM75 °FPassing clouds.7 mph94%29.92 "HgN/A
1:00 AM77 °FPassing clouds.7 mph89%29.92 "HgN/A
12:00 AM77 °FPassing clouds.9 mph89%29.95 "HgN/A
11:00 PM
Jan 25
77 °FPassing clouds.12 mph89%29.95 "HgN/A
10:00 PM79 °FPassing clouds.10 mph84%29.95 "HgN/A
9:00 PM77 °FPassing clouds.12 mph94%29.95 "HgN/A
8:00 PM79 °FPassing clouds.10 mph84%29.92 "HgN/A
7:00 PM79 °FPassing clouds.14 mph84%29.92 "HgN/A
Weather by CustomWeather, © 2014

See weather overviewHow to use our weather pages